|  軌道要素
Epoch 2017 July 26.0 TT = JDT 2457960.5
T 2017 Aug. 5.93512 TT                                  MPCW
q   1.2133647            (2000.0)            P               Q
n   0.19484613     Peri.   16.21424     +0.45235718     +0.82615701
a   2.9467380      Node   281.75204     -0.85161845     +0.28831184
e   0.5882346      Incl.   20.06617     -0.26479992     +0.48408767
P   5.06
From 1371 observations 2002 July 30-2017 Aug. 23, mean residual 0".7.
     Nongravitational parameters A1 = -0.04, A2 = -0.0050.
 |